Flag for Canada Weather past 2 weeks in Saguenay, Quebec, Canada

Now
57 °F

Cool.


Feels Like: 57 °F
Forecast: 57 / 68 °F
Wind: 5 mph from Southwest

Location: Jonquiere Airport

Current Time: Jul 28, 2014 at 9:40:57 AM

Latest Report: Jul 28, 2014 at 9:00 AM


Visibility: N/A

Pressure: 29.79 "Hg

Humidity: 90%

Dew point: 54 °F

Location of SaguenayLocation

Historic Weather in Saguenay — Graph

°F

Saguenay temperature yesterday

Maximum temperature yesterday: 65 °F (at 5:00 PM)
Minimum temperature yesterday: 59 °F (at 11:00 PM)
Average temperature yesterday: 61 °F

Past Weeks' High & Low Weather Summary

 TemperatureHumidityPressure
High84 °F (Jul 22, 12:00 PM)100% (Jul 27, 12:00 AM)30.27 "Hg (Jul 27, 12:00 AM)
Low52 °F (Jul 25, 6:00 AM)34% (Jul 24, 3:00 PM)29.59 "Hg (Jul 27, 5:00 PM)
Average67 °F72%29.88 "Hg
* Reported Jul 13 8:00 AM — Jul 28 8:00 AM, Saguenay, Weather by CustomWeather, © 2014

Note: Actual official high and low records may vary slightly from our data, if they occured in-between our weather recording intervals... More about our weather records

Advertising

Saguenay weather history for previous 24 hours

 ConditionsComfort  
Time TempWeatherWind HumidityBarometerVisibility
8:00 AM
Jul 28
55 °FCool.7 mph91%29.77 "HgN/A
7:00 AM56 °FCool.7 mph95%29.76 "HgN/A
6:00 AM55 °FCool.5 mph95%29.73 "HgN/A
5:00 AM56 °FCool.5 mph89%29.72 "HgN/A
4:00 AM56 °FCool.5 mph97%29.70 "HgN/A
3:00 AM58 °FCool.7 mph94%29.70 "HgN/A
2:00 AM58 °FCool.6 mph94%29.69 "HgN/A
1:00 AM59 °FCool.7 mph93%29.69 "HgN/A
12:00 AM59 °FCool.8 mph93%29.69 "HgN/A
11:00 PM
Jul 27
59 °FCool.7 mph94%29.67 "HgN/A
10:00 PM59 °FCool.8 mph94%29.68 "HgN/A
9:00 PM60 °FCool.12 mph87%29.66 "HgN/A
8:00 PM61 °FCool.12 mph93%29.63 "HgN/A
7:00 PM61 °FCool.13 mph93%29.62 "HgN/A
6:00 PM61 °FCool.10 mph94%29.60 "HgN/A
5:00 PM65 °FMild.7 mph96%29.59 "HgN/A
4:00 PM64 °FMild.5 mph96%29.60 "HgN/A
3:00 PM63 °FMild.5 mph97%29.60 "HgN/A
2:00 PM62 °FMild.5 mph97%29.62 "HgN/A
1:00 PM62 °FCool.7 mph97%29.62 "HgN/A
12:00 PM61 °FCool.6 mph96%29.65 "HgN/A
11:00 AM62 °FCool.5 mph97%29.66 "HgN/A
10:00 AM62 °FCool.2 mph96%29.69 "HgN/A
9:00 AM62 °FCool.2 mph95%29.70 "HgN/A
Weather by CustomWeather, © 2014

See weather overviewHow to use our weather pages